• En Colombia
  • Lista de países
  • Para 7 días
  • Temperatura del agua
  • El tiempo en el mapa
  • Informadores
  • user-avatar
    Iniciar sesión

    Tiempo cada hora Usti-nad-Labem

    Hoy, 14 Diciembre, Sábado

    Tiempo Temperatura Precipitaciones Viento Presión Humedad
    00:00 +1°C° 0 mm 4 mps 720 mmHg 91%
    01:00 +1°C° 0 mm 4 mps 720 mmHg 91%
    02:00 +1°C° 0 mm 4 mps 720 mmHg 92%
    03:00 +2°C° 0 mm 3 mps 720 mmHg 92%
    04:00 +2°C° 0 mm 3 mps 721 mmHg 93%
    05:00 +2°C° 0 mm 3 mps 721 mmHg 92%
    06:00 +1°C° 0 mm 4 mps 721 mmHg 90%
    07:00 +2°C° 0 mm 3 mps 722 mmHg 86%
    08:00 +1°C° 0.1 mm 4 mps 721 mmHg 86%
    09:00 +1°C° 0.1 mm 5 mps 721 mmHg 85%
    10:00 +1°C° 0.1 mm 6 mps 721 mmHg 84%
    11:00 +2°C° 0.3 mm 6 mps 721 mmHg 84%
    12:00 +2°C° 0.3 mm 7 mps 722 mmHg 84%
    13:00 +3°C° 0.3 mm 7 mps 722 mmHg 84%
    14:00 +3°C° 0 mm 6 mps 723 mmHg 81%
    15:00 +3°C° 0 mm 6 mps 724 mmHg 77%
    16:00 +2°C° 0 mm 5 mps 726 mmHg 74%
    17:00 +2°C° 0 mm 5 mps 726 mmHg 74%
    18:00 +3°C° 0 mm 4 mps 727 mmHg 74%
    19:00 +1°C° 0 mm 4 mps 728 mmHg 75%
    20:00 +2°C° 0.1 mm 5 mps 728 mmHg 78%
    21:00 +2°C° 0.1 mm 5 mps 729 mmHg 81%
    22:00 +3°C° 0.1 mm 5 mps 729 mmHg 84%
    23:00 +2°C° 0.1 mm 5 mps 730 mmHg 80%

    Mañana, 15 Diciembre, Domingo

    Tiempo Temperatura Precipitaciones Viento Presión Humedad
    00:00 +2°C° 0.1 mm 5 mps 730 mmHg 76%
    01:00 +2°C° 0.1 mm 5 mps 731 mmHg 73%
    02:00 +3°C° 0 mm 4 mps 731 mmHg 74%
    03:00 +2°C° 0 mm 3 mps 732 mmHg 76%
    04:00 +3°C° 0 mm 2 mps 732 mmHg 77%
    05:00 +3°C° 0.3 mm 2 mps 732 mmHg 82%
    06:00 +3°C° 0.3 mm 2 mps 732 mmHg 87%
    07:00 +2°C° 0.3 mm 3 mps 731 mmHg 92%
    08:00 +3°C° 0.8 mm 3 mps 731 mmHg 93%
    09:00 +3°C° 0.8 mm 3 mps 731 mmHg 94%
    10:00 +4°C° 0.8 mm 4 mps 731 mmHg 94%
    11:00 +5°C° 0.1 mm 4 mps 731 mmHg 91%
    12:00 +7°C° 0.1 mm 4 mps 731 mmHg 87%
    13:00 +8°C° 0.1 mm 4 mps 732 mmHg 84%
    14:00 +8°C° 0.6 mm 4 mps 732 mmHg 86%
    15:00 +8°C° 0.6 mm 3 mps 733 mmHg 88%
    16:00 +8°C° 0.6 mm 2 mps 734 mmHg 90%
    17:00 +7°C° 0.2 mm 3 mps 734 mmHg 88%
    18:00 +7°C° 0.2 mm 3 mps 735 mmHg 87%
    19:00 +7°C° 0.2 mm 3 mps 735 mmHg 85%
    20:00 +7°C° 0 mm 3 mps 736 mmHg 86%
    21:00 +7°C° 0 mm 3 mps 736 mmHg 87%
    22:00 +7°C° 0 mm 2 mps 737 mmHg 87%
    23:00 +7°C° 0.1 mm 2 mps 737 mmHg 89%

    Pasado mañana, 16 Diciembre, Lunes

    Tiempo Temperatura Precipitaciones Viento Presión Humedad
    00:00 +7°C° 0.1 mm 2 mps 738 mmHg 90%
    01:00 +7°C° 0.1 mm 2 mps 738 mmHg 92%
    02:00 +7°C° 0 mm 2 mps 738 mmHg 92%
    03:00 +7°C° 0 mm 2 mps 738 mmHg 93%
    04:00 +7°C° 0 mm 2 mps 738 mmHg 93%
    05:00 +7°C° 0.1 mm 2 mps 738 mmHg 93%
    06:00 +7°C° 0.1 mm 2 mps 738 mmHg 92%
    07:00 +7°C° 0.1 mm 2 mps 738 mmHg 91%
    08:00 +7°C° 0 mm 2 mps 738 mmHg 89%
    09:00 +7°C° 0 mm 2 mps 738 mmHg 87%
    10:00 +7°C° 0 mm 2 mps 738 mmHg 85%
    11:00 +8°C° 0 mm 2 mps 738 mmHg 82%
    12:00 +8°C° 0 mm 2 mps 738 mmHg 79%
    13:00 +9°C° 0 mm 2 mps 738 mmHg 76%
    14:00 +8°C° 0 mm 3 mps 738 mmHg 79%
    15:00 +7°C° 0 mm 3 mps 738 mmHg 82%
    16:00 +5°C° 0 mm 3 mps 738 mmHg 86%
    17:00 +5°C° 0 mm 3 mps 737 mmHg 88%
    18:00 +5°C° 0 mm 3 mps 737 mmHg 91%
    19:00 +4°C° 0 mm 3 mps 737 mmHg 93%
    20:00 +4°C° 0 mm 3 mps 737 mmHg 93%
    21:00 +4°C° 0 mm 3 mps 737 mmHg 94%
    22:00 +4°C° 0 mm 3 mps 737 mmHg 94%
    23:00 +3°C° 0 mm 3 mps 737 mmHg 94%

    17 Diciembre, Martes

    Tiempo Temperatura Precipitaciones Viento Presión Humedad
    00:00 +3°C° 0 mm 3 mps 736 mmHg 94%
    01:00 +4°C° 0 mm 2 mps 736 mmHg 94%
    02:00 +4°C° 0 mm 2 mps 736 mmHg 95%
    03:00 +4°C° 0 mm 2 mps 736 mmHg 95%
    04:00 +5°C° 0 mm 2 mps 736 mmHg 95%
    05:00 +5°C° 0 mm 2 mps 736 mmHg 95%
    06:00 +5°C° 0 mm 2 mps 736 mmHg 95%
    07:00 +5°C° 0 mm 2 mps 736 mmHg 95%
    08:00 +5°C° 0 mm 2 mps 736 mmHg 94%
    09:00 +5°C° 0 mm 2 mps 737 mmHg 93%
    10:00 +6°C° 0 mm 2 mps 737 mmHg 92%
    11:00 +6°C° 0 mm 2 mps 737 mmHg 89%
    12:00 +7°C° 0 mm 2 mps 737 mmHg 87%
    13:00 +8°C° 0 mm 1 mps 737 mmHg 84%
    14:00 +8°C° 0 mm 1 mps 737 mmHg 86%
    15:00 +7°C° 0 mm 1 mps 737 mmHg 88%
    16:00 +7°C° 0 mm 1 mps 737 mmHg 90%
    17:00 +6°C° 0 mm 1 mps 737 mmHg 90%
    18:00 +6°C° 0 mm 1 mps 737 mmHg 90%
    19:00 +6°C° 0 mm 1 mps 737 mmHg 90%
    20:00 +6°C° 0 mm 1 mps 738 mmHg 90%
    21:00 +6°C° 0 mm 1 mps 738 mmHg 91%
    22:00 +6°C° 0 mm 1 mps 738 mmHg 91%
    23:00 +6°C° 0 mm 1 mps 738 mmHg 91%

    18 Diciembre, Miércoles

    Tiempo Temperatura Precipitaciones Viento Presión Humedad
    00:00 +5°C° 0 mm 1 mps 738 mmHg 91%
    01:00 +5°C° 0 mm 1 mps 738 mmHg 91%
    02:00 +5°C° 0 mm 1 mps 738 mmHg 91%
    03:00 +4°C° 0 mm 2 mps 739 mmHg 91%
    04:00 +4°C° 0 mm 2 mps 739 mmHg 91%
    05:00 +4°C° 0 mm 2 mps 739 mmHg 91%
    06:00 +4°C° 0 mm 2 mps 739 mmHg 91%
    07:00 +4°C° 0 mm 2 mps 739 mmHg 90%
    08:00 +4°C° 0 mm 2 mps 739 mmHg 88%
    09:00 +5°C° 0 mm 2 mps 740 mmHg 85%
    10:00 +6°C° 0 mm 2 mps 740 mmHg 83%
    11:00 +7°C° 0 mm 1 mps 740 mmHg 81%
    12:00 +8°C° 0 mm 1 mps 740 mmHg 78%
    13:00 +9°C° 0 mm 1 mps 740 mmHg 76%
    14:00 +8°C° 0 mm 1 mps 741 mmHg 79%
    15:00 +8°C° 0 mm 1 mps 741 mmHg 82%
    16:00 +6°C° 0 mm 0 mps 741 mmHg 85%
    17:00 +6°C° 0 mm 0 mps 741 mmHg 86%
    18:00 +5°C° 0 mm 0 mps 741 mmHg 87%
    19:00 +5°C° 0 mm 0 mps 742 mmHg 88%
    20:00 +6°C° 0 mm 1 mps 742 mmHg 88%
    21:00 +6°C° 0 mm 1 mps 742 mmHg 88%
    22:00 +6°C° 0 mm 1 mps 742 mmHg 89%
    23:00 +6°C° 0 mm 1 mps 741 mmHg 90%

    19 Diciembre, Jueves

    Tiempo Temperatura Precipitaciones Viento Presión Humedad
    00:00 +6°C° 0 mm 1 mps 741 mmHg 91%
    01:00 +5°C° 0 mm 1 mps 741 mmHg 92%
    02:00 +6°C° 0 mm 1 mps 740 mmHg 93%
    03:00 +6°C° 0 mm 1 mps 740 mmHg 93%
    04:00 +6°C° 0 mm 1 mps 740 mmHg 94%
    05:00 +6°C° 0 mm 1 mps 739 mmHg 93%
    06:00 +6°C° 0 mm 1 mps 739 mmHg 93%
    07:00 +7°C° 0 mm 1 mps 739 mmHg 92%
    08:00 +7°C° 0 mm 1 mps 739 mmHg 91%
    09:00 +7°C° 0 mm 1 mps 738 mmHg 89%
    10:00 +6°C° 0 mm 2 mps 738 mmHg 88%
    11:00 +6°C° 0 mm 2 mps 738 mmHg 88%
    12:00 +7°C° 0 mm 2 mps 737 mmHg 88%
    13:00 +7°C° 0 mm 2 mps 737 mmHg 88%
    14:00 +7°C° 0 mm 2 mps 736 mmHg 89%
    15:00 +7°C° 0 mm 2 mps 736 mmHg 91%
    16:00 +6°C° 0 mm 2 mps 735 mmHg 92%
    17:00 +7°C° 0 mm 2 mps 735 mmHg 92%
    18:00 +7°C° 0 mm 2 mps 735 mmHg 91%
    19:00 +7°C° 0 mm 2 mps 734 mmHg 91%
    20:00 +7°C° 0 mm 2 mps 734 mmHg 91%
    21:00 +7°C° 0 mm 2 mps 734 mmHg 91%
    22:00 +7°C° 0 mm 3 mps 734 mmHg 90%
    23:00 +7°C° 0.2 mm 2 mps 733 mmHg 92%
    Mostrar más